Location: Ottawa
(45.4170°N, 75.7000°W)
Time: 07:06:35
(UTC-04:00)

Amateur Radio Satellites - All Passes

Search period start: 06 May 2016 06:36
Search period end: 07 May 2016 06:36
Location: Ottawa, 45.4170°N, 75.7000°W

Satellite Date Start Highest point End Downlink Frequencies (MHz)
Time Altitude Azimuth
GOMX 1 06 May 06:45:09 06:48:47 18° 88° (E) 06:52:17 467.674
CUBESAT XI-V 06 May 06:56:05 06:59:12 18° 269° (W) 07:02:22 437.345
YUBILEINY 06 May 06:56:12 07:04:36 56° 270° (W) 07:13:00 435.215
LilacSat-2 06 May 07:01:16 07:04:50 37° 98° (E) 07:08:23 437.200
RS-15 06 May 07:06:32 07:18:38 68° 243° (WSW) 07:30:43 29.354- 29.394
CUTE-I 06 May 07:12:53 07:18:07 54° 100° (E) 07:23:19 437.470
HORYU 2 06 May 07:23:52 07:26:26 15° 300° (WNW) 07:28:59 437.375
BRITE-PL 06 May 07:29:05 07:34:50 83° 103° (ESE) 07:40:24 437.365/2234.400
SO-50 06 May 07:30:20 07:35:12 60° 310° (NW) 07:40:04 436.795
M-CUBED/EXP-1 PRIME 06 May 07:36:46 07:39:23 18° 97° (E) 07:41:52 437.505
Cosmos 2491 06 May 07:42:58 07:51:41 62° 284° (WNW) 08:00:29 435.465 / 435.565
NOAA 15 06 May 07:43:06 07:48:21 59° 289° (WNW) 07:53:33 137.62
AO-7 06 May 07:46:10 07:51:09 18° 317° (NW) 07:56:09 29.400- 29.500
AUBIESAT-1 06 May 07:51:51 07:54:46 21° 98° (E) 07:57:32 437.475
ISS 06 May 07:54:29 07:57:41 50° 338° (NNW) 08:00:53 145.825
NOAA 18 06 May 07:57:23 08:02:42 54° 291° (WNW) 08:07:59 137.9125
Cubesat XI-IV 06 May 07:58:33 08:03:49 64° 289° (WNW) 08:09:05 437.490
DOVE 4 06 May 07:59:22 08:04:11 41° 96° (E) 08:08:42 437.250
Cosmos 2504 06 May 08:03:26 08:11:01 70° 266° (W) 08:19:10 435.465 / 435.565
STRAND 1 06 May 08:04:39 08:09:24 39° 262° (W) 08:14:12 437.568
HO-68 06 May 08:11:48 08:17:29 25° 92° (E) 08:23:10 435.675
PRISM 06 May 08:14:07 08:18:08 62° 73° (ENE) 08:22:13 437.425
CINEMA 3 06 May 08:16:08 08:19:20 19° 90° (E) 08:22:26 145.822/145.860
GOMX 1 06 May 08:21:58 08:27:23 67° 287° (WNW) 08:32:30 467.674
LilacSat-2 06 May 08:36:18 08:38:53 18° 295° (WNW) 08:41:29 437.200
CANX-2 06 May 08:44:57 08:48:55 38° 97° (E) 08:52:52 2200.000
CUTE-I 06 May 08:53:40 08:57:49 24° 298° (WNW) 09:01:57 437.470
ANTELSAT 06 May 08:58:58 09:00:21 11° 58° (ENE) 09:01:44 437.575/2403.000
BRITE-PL 06 May 09:08:52 09:12:34 18° 301° (WNW) 09:16:14 437.365/2234.400
M-CUBED/EXP-1 PRIME 06 May 09:10:34 09:14:11 36° 296° (WNW) 09:17:31 437.505
SO-50 06 May 09:13:46 09:16:42 15° 331° (NNW) 09:19:36 436.795
PHONESAT 2.4 06 May 09:14:22 09:16:40 19° 161° (SSE) 09:18:58 2401.200-2431.200
CUTE 1.7 + AOD 2 06 May 09:16:51 09:21:05 76° 102° (ESE) 09:25:19 437.475
Oscar 11 06 May 09:19:12 09:21:40 15° 90° (E) 09:24:09 145.826/435.025
RS-15 06 May 09:21:55 09:28:39 17° 265° (W) 09:35:25 29.354- 29.394
AUBIESAT-1 06 May 09:25:59 09:29:22 30° 298° (WNW) 09:32:33 437.475
ISS 06 May 09:31:47 09:34:37 26° 358° (N) 09:37:27 145.825
COMPASS 1 06 May 09:33:26 09:37:35 61° 101° (E) 09:41:42 437.405
FUNcube-1 06 May 09:36:04 09:38:54 18° 91° (E) 09:41:43 145.935
SEEDS 06 May 09:37:10 09:41:23 88° 285° (WNW) 09:45:35 437.485
DOVE 4 06 May 09:37:24 09:41:39 27° 296° (WNW) 09:45:42 437.250
Cubesat XI-IV 06 May 09:41:49 09:42:53 11° 307° (NW) 09:43:56 437.490
Cosmos 2491 06 May 09:46:16 09:50:43 14° 308° (NW) 09:55:12 435.465 / 435.565
UNISAT 6 06 May 09:50:13 09:54:21 34° 68° (ENE) 09:58:25 437.425
PRISM 06 May 09:52:11 09:53:53 12° 270° (W) 09:55:35 437.425
CINEMA 3 06 May 09:52:22 09:56:48 47° 289° (WNW) 10:01:00 145.822/145.860
UWE-3 06 May 09:57:43 10:01:49 46° 99° (E) 10:05:49 435.000/436.395/437.385
HO-68 06 May 09:58:40 10:05:47 69° 291° (WNW) 10:12:53 435.675
Cosmos 2504 06 May 09:59:51 10:03:03 13° 285° (WNW) 10:06:19 435.465 / 435.565
AAUSAT CUBESAT 2 06 May 10:00:27 10:04:37 84° 284° (WNW) 10:08:46 437.432
GOMX 1 06 May 10:02:46 10:04:22 11° 306° (NW) 10:05:58 467.674
TIGRISAT 06 May 10:06:04 10:10:28 45° 71° (ENE) 10:14:47 435.000
Cosmos 2499 06 May 10:07:15 10:10:20 12° 54° (NE) 10:13:28 435.465 / 435.565
CUBEBUG 2 06 May 10:13:21 10:17:41 82° 283° (WNW) 10:21:51 437.445
ZACube-1 06 May 10:19:33 10:23:41 54° 100° (E) 10:27:44 437.345
CANX-2 06 May 10:21:20 10:24:34 22° 295° (WNW) 10:27:47 2200.000
NANOSAT C BR1 06 May 10:22:37 10:25:02 15° 61° (ENE) 10:27:27 145.865
ANTELSAT 06 May 10:31:45 10:36:23 85° 74° (ENE) 10:40:56 437.575/2403.000
DELFI C3 06 May 10:42:15 10:46:11 55° 100° (E) 10:50:07 145.870
GONETS M04 06 May 10:44:41 10:52:47 39° 69° (ENE) 11:00:47
HUMSAT D 06 May 10:49:19 10:52:54 29° 96° (E) 10:56:28 437.325/437.525
PHONESAT 2.4 06 May 10:50:11 10:53:03 32° 177° (S) 10:55:55 2401.200-2431.200
Oscar 11 06 May 10:53:56 10:58:10 56° 288° (WNW) 11:02:23 145.826/435.025
CUTE 1.7 + AOD 2 06 May 10:54:38 10:56:21 12° 300° (WNW) 10:58:05 437.475
JAS-2 06 May 10:57:35 10:59:39 12° 44° (NE) 11:01:47 435.910
ISS 06 May 11:08:31 11:11:37 39° 17° (NNE) 11:14:44 145.825
COMPASS 1 06 May 11:10:25 11:12:41 14° 298° (WNW) 11:14:57 437.405
DUCHIFAT 1 06 May 11:11:12 11:15:13 41° 70° (ENE) 11:19:14 145.980
FUNcube-1 06 May 11:11:26 11:15:24 43° 289° (WNW) 11:19:18 145.935
AO-85 06 May 11:13:20 11:17:15 20° 110° (ESE) 11:21:08 145.980
SEEDS 06 May 11:16:05 11:16:24 10° 301° (WNW) 11:16:42 437.485
QB50P2 06 May 11:16:57 11:21:08 55° 73° (ENE) 11:25:20 145.880/145.840
AIST 1 06 May 11:17:05 11:21:29 64° 79° (E) 11:25:52
POLYITAN 1 06 May 11:19:08 11:23:21 56° 72° (ENE) 11:27:34 437.675
POPSAT HIP 1 06 May 11:20:39 11:24:51 57° 73° (ENE) 11:29:04 437.405
QB50P1 06 May 11:23:27 11:27:41 62° 74° (ENE) 11:31:56 145.935-145.965
AISAT 06 May 11:25:11 11:26:33 11° 88° (E) 11:27:54 437.250
UNISAT 6 06 May 11:27:08 11:31:05 28° 265° (W) 11:34:59 437.425
UWE-3 06 May 11:35:05 11:37:56 18° 297° (WNW) 11:40:45 435.000/436.395/437.385
BUGSAT 1 06 May 11:36:36 11:40:33 39° 70° (ENE) 11:44:32 437.445
TIGRISAT 06 May 11:43:54 11:47:21 21° 267° (W) 11:50:45 435.000
HO-68 06 May 11:48:12 11:52:16 16° 312° (NW) 11:56:21 435.675
CUBEBUG 1 06 May 11:49:19 11:52:32 19° 92° (E) 11:55:45 437.445
Oscar 19 06 May 11:55:23 11:57:47 13° 56° (NE) 12:00:13 437.125/150
NANOSAT C BR1 06 May 11:56:04 12:00:17 62° 259° (WSW) 12:04:33 145.865
ZACube-1 06 May 11:57:03 11:59:33 16° 298° (WNW) 12:02:02 437.345
Cosmos 2499 06 May 11:57:31 12:05:13 59° 77° (ENE) 12:13:29 435.465 / 435.565
ESTCUBE 1 06 May 11:57:39 12:01:45 33° 96° (E) 12:05:51 437.505/2401.250
UKube-1 06 May 12:09:17 12:12:41 22° 94° (E) 12:16:03 .
DX 1 06 May 12:09:57 12:13:43 27° 95° (E) 12:17:26 434.975-435.025
ANTELSAT 06 May 12:12:35 12:13:39 11° 272° (W) 12:14:44 437.575/2403.000
DELFI C3 06 May 12:18:27 12:20:38 14° 297° (WNW) 12:22:50 145.870
Gurwin Techsat 1B 06 May 12:23:28 12:24:14 10° 53° (NE) 12:25:02 435.225
HUMSAT D 06 May 12:25:04 12:28:27 25° 293° (WNW) 12:31:50 437.325/437.525
VELOX 1 06 May 12:26:30 12:30:48 45° 99° (E) 12:35:05 145.980
PHONESAT 2.4 06 May 12:26:52 12:29:30 24° 194° (SSW) 12:32:07 2401.200-2431.200
SPROUT 06 May 12:31:47 12:35:03 21° 93° (E) 12:38:17 437.525
JAS-2 06 May 12:36:52 12:42:53 51° 67° (ENE) 12:49:43 435.910
50 SAT 06 May 12:40:32 12:44:12 81° 101° (E) 12:47:53 437.505
SO-50 06 May 12:40:51 12:42:15 11° 21° (NNE) 12:43:39 436.795
GONETS M04 06 May 12:41:30 12:49:50 51° 271° (W) 12:58:06
ISS 06 May 12:45:00 12:48:09 44° 216° (SW) 12:51:16 145.825
DUCHIFAT 1 06 May 12:47:58 12:51:05 20° 267° (W) 12:54:13 145.980
AO-85 06 May 12:51:49 12:57:17 73° 307° (NW) 13:02:40 145.980
QB50P2 06 May 12:54:48 12:57:17 15° 269° (W) 12:59:47 145.880/145.840
AIST 1 06 May 12:56:34 12:58:30 13° 277° (W) 13:00:26
POLYITAN 1 06 May 12:57:04 12:59:30 15° 270° (W) 13:01:57 437.675
POPSAT HIP 1 06 May 12:58:36 13:01:00 15° 270° (W) 13:03:25 437.405
AISAT 06 May 12:59:06 13:03:36 79° 285° (WNW) 13:08:03 437.250
QB50P1 06 May 13:01:45 13:03:53 13° 270° (W) 13:06:01 145.935-145.965
BUGSAT 1 06 May 13:12:50 13:16:04 21° 267° (W) 13:19:20 437.445
AO-7 06 May 13:13:19 13:17:30 15° 40° (NE) 13:21:42 29.400- 29.500
ITAMSAT 1 06 May 13:22:14 13:25:02 15° 57° (ENE) 13:27:50 435.822/435.867
CUBEBUG 1 06 May 13:24:48 13:29:04 45° 289° (WNW) 13:33:16 437.445
Oscar 19 06 May 13:31:07 13:36:18 83° 73° (ENE) 13:41:32 437.125/150
ESTCUBE 1 06 May 13:34:36 13:38:28 28° 294° (WNW) 13:42:20 437.505/2401.250
UKube-1 06 May 13:44:49 13:48:51 38° 291° (WNW) 13:52:52 .
DX 1 06 May 13:46:00 13:49:55 32° 293° (WNW) 13:53:48 434.975-435.025
PCSat 06 May 13:48:33 13:50:09 11° 101° (ESE) 13:51:46 145.827
Cosmos 2499 06 May 13:51:17 13:57:56 32° 275° (W) 14:04:59 435.465 / 435.565
Gurwin Techsat 1B 06 May 13:57:55 14:03:09 62° 72° (ENE) 14:08:25 435.225
VELOX 1 06 May 14:03:39 14:06:59 21° 297° (WNW) 14:10:17 145.980
O/OREOS (USA 219) 06 May 14:04:43 14:08:55 36° 106° (ESE) 14:13:07 437.305
SPROUT 06 May 14:07:09 14:11:10 39° 290° (WNW) 14:15:08 437.525
CUSAT 1 06 May 14:09:12 14:11:55 17° 81° (E) 14:15:07 437.405
SO-50 06 May 14:19:44 14:24:10 36° 44° (NE) 14:28:27 436.795
JAS-2 06 May 14:22:47 14:28:15 31° 269° (W) 14:34:22 435.910
TISAT 1 06 May 14:25:48 14:30:02 80° 287° (WNW) 14:34:14 437.305
AO-85 06 May 14:34:51 14:38:41 19° 328° (NNW) 14:42:26 145.980
AISAT 06 May 14:38:42 14:39:18 10° 304° (WNW) 14:39:53 437.250
ITUPSAT 1 06 May 14:41:05 14:45:11 28° 95° (E) 14:49:15 437.325
SWISSCUBE 06 May 14:48:04 14:52:29 36° 97° (E) 14:56:52 437.505
ITAMSAT 1 06 May 14:58:36 15:03:47 88° 257° (WSW) 15:09:00 435.822/435.867
AO-7 06 May 15:00:31 15:08:29 54° 62° (ENE) 15:16:28 29.400- 29.500
Oscar 19 06 May 15:13:47 15:16:17 13° 272° (W) 15:18:48 437.125/150
HORYU 2 06 May 15:14:05 15:14:26 10° 56° (ENE) 15:14:49 437.375
BEESAT 06 May 15:20:34 15:25:20 68° 102° (ESE) 15:30:04 436.000
PCSat 06 May 15:27:12 15:32:37 77° 120° (ESE) 15:38:04 145.827
DANDE 06 May 15:28:08 15:31:09 38° 92° (E) 15:34:59 436.750
Gurwin Techsat 1B 06 May 15:39:50 15:43:32 19° 269° (W) 15:47:15 435.225
O/OREOS (USA 219) 06 May 15:44:25 15:48:23 28° 305° (NW) 15:52:21 437.305
CUSAT 1 06 May 15:49:30 15:53:19 44° 289° (WNW) 15:58:22 437.405
Cosmos 2491 06 May 15:55:06 16:00:51 18° 56° (NE) 16:06:33 435.465 / 435.565
SO-50 06 May 16:00:22 16:04:39 35° 244° (WSW) 16:08:47 436.795
ITUPSAT 1 06 May 16:18:43 16:23:04 36° 292° (WNW) 16:27:25 437.325
KKS-1 06 May 16:18:46 16:22:55 36° 97° (E) 16:27:00 437.445
STARS 06 May 16:24:36 16:28:02 22° 94° (E) 16:31:27 437.465
SWISSCUBE 06 May 16:26:06 16:30:09 28° 295° (WNW) 16:34:12 437.505
ITAMSAT 1 06 May 16:42:13 16:44:00 12° 273° (W) 16:45:47 435.822/435.867
HORYU 2 06 May 16:45:46 16:50:13 78° 75° (ENE) 16:54:42 437.375
MOZHAYETS 4 06 May 16:51:49 16:56:18 54° 100° (E) 17:00:48
AO-7 06 May 16:53:55 17:01:29 39° 262° (W) 17:09:07 29.400- 29.500
CUTE-I 06 May 16:59:29 17:02:52 17° 58° (ENE) 17:06:14 437.470
BEESAT 06 May 16:59:38 17:02:36 17° 300° (WNW) 17:05:34 436.000
BRITE-PL 06 May 17:05:33 17:08:52 18° 58° (ENE) 17:12:19 437.365/2234.400
PCSat 06 May 17:12:23 17:16:37 23° 320° (NW) 17:20:53 145.827
DANDE 06 May 17:12:35 17:14:32 14° 301° (WNW) 17:16:46 436.750
CUBESAT XI-V 06 May 17:13:34 17:15:05 11° 87° (E) 17:16:36 437.345
BEESAT 3 06 May 17:19:03 17:22:17 24° 115° (ESE) 17:25:32 437.485
NOAA 15 06 May 17:26:07 17:31:01 40° 67° (ENE) 17:35:56 137.62
BEESAT 2 06 May 17:34:45 17:37:48 22° 114° (ESE) 17:40:54 435.950
Cubesat XI-IV 06 May 17:43:21 17:48:14 38° 67° (ENE) 17:53:07 437.490
LilacSat-2 06 May 17:45:27 17:48:45 27° 68° (ENE) 17:52:02 437.200
NOAA 18 06 May 17:45:32 17:50:52 54° 69° (ENE) 17:56:13 137.9125
Cosmos 2491 06 May 17:50:31 17:59:24 77° 79° (E) 18:08:10 435.465 / 435.565
GOMX 1 06 May 17:54:41 17:58:52 25° 63° (ENE) 18:03:11 467.674
KKS-1 06 May 17:55:38 17:59:19 25° 295° (WNW) 18:02:58 437.445
STARS 06 May 18:00:26 18:04:33 39° 291° (WNW) 18:08:37 437.465
AO-85 06 May 18:03:16 18:04:20 11° 17° (NNE) 18:05:23 145.980
YUBILEINY 06 May 18:03:40 18:11:26 38° 85° (E) 18:19:10 435.215
M-CUBED/EXP-1 PRIME 06 May 18:23:38 18:28:02 41° 65° (ENE) 18:32:18 437.505
HORYU 2 06 May 18:25:55 18:27:20 11° 271° (W) 18:28:46 437.375
MOZHAYETS 4 06 May 18:29:57 18:33:06 19° 297° (WNW) 18:36:15
CUTE-I 06 May 18:36:58 18:42:17 77° 256° (WSW) 18:47:38 437.470
AUBIESAT-1 06 May 18:38:29 18:42:54 47° 66° (ENE) 18:47:12 437.475
BRITE-PL 06 May 18:41:38 18:46:37 76° 258° (WSW) 18:52:03 437.365/2234.400
HO-68 06 May 18:43:24 18:49:00 26° 55° (NE) 18:54:36 435.675
CUBESAT XI-V 06 May 18:48:21 18:53:06 84° 283° (WNW) 18:57:48 437.345
Cosmos 2504 06 May 18:55:08 18:59:25 17° 78° (ENE) 19:03:42 435.465 / 435.565
BEESAT 3 06 May 18:56:09 18:59:50 36° 313° (NW) 19:03:31 437.485
DOVE 4 06 May 19:05:54 19:10:56 53° 71° (ENE) 19:16:07 437.250
NOAA 15 06 May 19:06:17 19:10:52 30° 265° (W) 19:15:30 137.62
BEESAT 2 06 May 19:11:38 19:15:26 41° 312° (NW) 19:19:15 435.950
CINEMA 3 06 May 19:19:02 19:23:07 26° 65° (ENE) 19:27:10 145.822/145.860
LilacSat-2 06 May 19:19:47 19:23:01 25° 265° (W) 19:26:15 437.200
Cubesat XI-IV 06 May 19:23:39 19:28:21 31° 264° (W) 19:33:05 437.490
RS-15 06 May 19:26:28 19:32:34 16° 94° (E) 19:38:48 29.354- 29.394
NOAA 18 06 May 19:27:30 19:31:50 23° 267° (W) 19:36:10 137.9125
GOMX 1 06 May 19:31:31 19:36:33 52° 262° (W) 19:41:52 467.674
CUBEBUG 2 06 May 19:39:04 19:41:26 14° 60° (ENE) 19:43:46 437.445
CANX-2 06 May 19:39:45 19:43:36 36° 70° (ENE) 19:47:27 2200.000
AIST 2 06 May 19:40:53 19:44:34 32° 117° (ESE) 19:48:18 435.215
AO-85 06 May 19:42:08 19:46:31 30° 41° (NE) 19:50:33 145.980
Cosmos 2491 06 May 19:48:36 19:55:17 25° 281° (W) 20:01:56 435.465 / 435.565
M-CUBED/EXP-1 PRIME 06 May 19:58:43 20:02:39 26° 260° (W) 20:06:29 437.505
YUBILEINY 06 May 19:59:29 20:07:56 53° 286° (WNW) 20:16:26 435.215
CUTE 1.7 + AOD 2 06 May 20:11:19 20:15:29 69° 76° (ENE) 20:19:41 437.475
STRAND 1 06 May 20:12:23 20:17:27 59° 101° (E) 20:22:30 437.568
AUBIESAT-1 06 May 20:14:00 20:17:32 22° 261° (W) 20:21:01 437.475
Oscar 11 06 May 20:16:17 20:18:58 16° 62° (ENE) 20:21:39 145.826/435.025
CUTE-I 06 May 20:22:43 20:23:12 10° 274° (W) 20:23:42 437.470
COMPASS 1 06 May 20:26:06 20:30:06 53° 73° (ENE) 20:34:08 437.405
CUBESAT XI-V 06 May 20:28:07 20:29:43 12° 302° (WNW) 20:31:18 437.345
HO-68 06 May 20:28:54 20:36:04 75° 255° (WSW) 20:43:16 435.675
SEEDS 06 May 20:30:39 20:34:49 83° 76° (ENE) 20:39:01 437.485
FUNcube-1 06 May 20:33:31 20:36:49 21° 65° (ENE) 20:40:04 145.935
Cosmos 2504 06 May 20:44:30 20:51:43 86° 278° (W) 20:58:58 435.465 / 435.565
DOVE 4 06 May 20:44:51 20:48:55 23° 269° (W) 20:53:04 437.250
AAUSAT CUBESAT 2 06 May 20:52:27 20:56:34 84° 76° (ENE) 21:00:42 437.432
CINEMA 3 06 May 20:55:13 21:00:01 44° 262° (W) 21:04:47 145.822/145.860
UWE-3 06 May 20:56:11 21:00:38 51° 72° (ENE) 21:05:01 435.000/436.395/437.385
CUBEBUG 2 06 May 21:12:45 21:17:28 79° 256° (WSW) 21:22:06 437.445
CANX-2 06 May 21:16:17 21:19:34 22° 267° (W) 21:22:51 2200.000
ZACube-1 06 May 21:16:54 21:21:18 57° 73° (ENE) 21:25:38 437.345
AIST 2 06 May 21:19:22 21:23:04 31° 315° (NW) 21:26:48 435.215
AO-85 06 May 21:22:38 21:27:09 43° 243° (WSW) 21:31:17 145.980
PRISM 06 May 21:28:35 21:32:46 76° 102° (ESE) 21:36:57 437.425
DELFI C3 06 May 21:30:16 21:33:59 42° 71° (ENE) 21:37:44 145.870
RS-15 06 May 21:31:19 21:42:28 69° 117° (ESE) 21:54:16 29.354- 29.394
HUMSAT D 06 May 21:42:40 21:46:15 28° 68° (ENE) 21:49:49 437.325/437.525
CUTE 1.7 + AOD 2 06 May 21:50:21 21:51:49 12° 272° (W) 21:53:16 437.475
Oscar 11 06 May 21:50:27 21:54:41 56° 260° (W) 21:58:56 145.826/435.025
STRAND 1 06 May 21:52:29 21:56:12 21° 299° (WNW) 21:59:55 437.568
COMPASS 1 06 May 22:03:42 22:06:00 15° 270° (W) 22:08:19 437.405
YUBILEINY 06 May 22:04:29 22:07:16 12° 311° (NW) 22:10:03 435.215
FUNcube-1 06 May 22:08:30 22:12:47 44° 261° (W) 22:17:01 145.935
HO-68 06 May 22:21:34 22:24:58 14° 274° (W) 22:28:21 435.675
ANTELSAT 06 May 22:22:53 22:25:13 14° 90° (E) 22:27:31 437.575/2403.000
AISAT 06 May 22:24:17 22:26:46 15° 60° (ENE) 22:29:16 437.250
PCSat 06 May 22:30:17 22:34:23 21° 39° (NE) 22:38:28 145.827
O/OREOS (USA 219) 06 May 22:34:10 22:36:44 15° 47° (NE) 22:39:16 437.305
UWE-3 06 May 22:34:14 22:37:22 18° 269° (W) 22:40:28 435.000/436.395/437.385
Cosmos 2504 06 May 22:41:53 22:46:19 17° 301° (WNW) 22:50:46 435.465 / 435.565
CUBEBUG 1 06 May 22:47:23 22:50:46 22° 64° (ENE) 22:54:11 437.445
ZACube-1 06 May 22:55:14 22:57:55 16° 270° (W) 23:00:35 437.345
ESTCUBE 1 06 May 22:59:08 23:03:18 39° 69° (ENE) 23:07:29 437.505/2401.250
PRISM 06 May 23:05:49 23:07:31 12° 300° (WNW) 23:09:13 437.425
UKube-1 06 May 23:05:52 23:09:25 25° 65° (ENE) 23:12:59 .
DELFI C3 06 May 23:06:32 23:09:04 16° 268° (W) 23:11:38 145.870
DX 1 06 May 23:07:25 23:11:16 31° 67° (ENE) 23:15:10 434.975-435.025
UNISAT 6 06 May 23:15:58 23:20:11 51° 100° (E) 23:24:20 437.425
HUMSAT D 06 May 23:18:14 23:21:50 28° 264° (W) 23:25:26 437.325/437.525
50 SAT 06 May 23:21:02 23:24:33 49° 72° (ENE) 23:28:05 437.505
VELOX 1 06 May 23:25:38 23:29:57 53° 72° (ENE) 23:34:18 145.980
SPROUT 06 May 23:27:33 23:30:53 22° 65° (ENE) 23:34:14 437.525
TIGRISAT 06 May 23:31:52 23:36:10 72° 101° (E) 23:40:25 435.000
NANOSAT C BR1 06 May 23:39:16 23:42:09 18° 92° (E) 23:45:01 145.865
RS-15 06 May 23:44:40 23:55:41 48° 324° (NW) 00:07:18 29.354- 29.394
TISAT 1 06 May 23:46:51 23:48:21 12° 59° (ENE) 23:49:52 437.305
GONETS M04 06 May 23:48:35 23:56:38 41° 86° (E) 00:04:40
AIST 1 06 May 23:48:44 23:52:37 33° 91° (E) 23:56:33
ANTELSAT 06 May 23:58:06 00:02:20 57° 288° (WNW) 00:06:31 437.575/2403.000
AISAT 06 May 23:58:16 00:02:43 69° 257° (WSW) 00:07:12 437.250
O/OREOS (USA 219) 07 May 00:12:13 00:16:46 82° 247° (WSW) 00:21:15 437.305
PCSat 07 May 00:13:01 00:18:29 85° 240° (WSW) 00:23:54 145.827
DANDE 07 May 00:20:29 00:23:10 12° 58° (ENE) 00:26:01 436.750
CUBEBUG 1 07 May 00:22:39 00:26:49 41° 262° (W) 00:31:01 437.445
DUCHIFAT 1 07 May 00:28:33 00:32:43 56° 101° (E) 00:36:49 145.980
QB50P2 07 May 00:35:20 00:39:36 78° 104° (ESE) 00:43:49 145.880/145.840
ESTCUBE 1 07 May 00:36:42 00:40:14 23° 267° (W) 00:43:49 437.505/2401.250
CUSAT 1 07 May 00:37:03 00:43:29 30° 67° (ENE) 00:50:22 437.405
POLYITAN 1 07 May 00:37:34 00:41:50 79° 104° (ESE) 00:46:02 437.675
Cosmos 2499 07 May 00:37:47 00:44:15 41° 88° (E) 00:50:51 435.465 / 435.565
POPSAT HIP 1 07 May 00:38:54 00:43:11 79° 104° (ESE) 00:47:23 437.405
UKube-1 07 May 00:41:23 00:45:20 34° 263° (W) 00:49:18 .
QB50P1 07 May 00:41:41 00:45:57 86° 104° (ESE) 00:50:10 145.935-145.965
DX 1 07 May 00:43:44 00:47:28 27° 265° (W) 00:51:14 434.975-435.025
BUGSAT 1 07 May 00:51:23 00:55:27 48° 99° (E) 00:59:26 437.445
UNISAT 6 07 May 00:53:42 00:56:31 17° 298° (WNW) 00:59:19 437.425
BEESAT 07 May 00:54:13 00:56:34 14° 58° (ENE) 00:58:55 436.000
50 SAT 07 May 00:57:08 00:58:38 12° 269° (W) 01:00:09 437.505
SPROUT 07 May 01:02:34 01:06:37 39° 262° (W) 01:10:42 437.525
VELOX 1 07 May 01:03:51 01:06:44 17° 269° (W) 01:09:38 145.980
TIGRISAT 07 May 01:10:20 01:12:17 13° 300° (WNW) 01:14:15 435.000
NANOSAT C BR1 07 May 01:14:05 01:18:08 44° 289° (WNW) 01:22:07 145.865
TISAT 1 07 May 01:19:07 01:23:23 83° 258° (WSW) 01:27:40 437.305
AIST 1 07 May 01:26:46 01:30:18 24° 289° (WNW) 01:33:51
JAS-2 07 May 01:28:02 01:35:27 43° 95° (E) 01:42:43 435.910
BEESAT 3 07 May 01:33:48 01:37:24 32° 46° (NE) 01:40:58 437.485
Oscar 19 07 May 01:41:04 01:45:18 25° 93° (E) 01:49:30 437.125/150
GONETS M04 07 May 01:44:49 01:53:18 49° 287° (WNW) 02:01:49
ITUPSAT 1 07 May 01:49:45 01:54:12 41° 69° (ENE) 01:58:40 437.325
BEESAT 2 07 May 01:50:03 01:53:36 29° 44° (NE) 01:57:07 435.950
SWISSCUBE 07 May 01:56:27 02:01:04 53° 71° (ENE) 02:05:42 437.505
PCSat 07 May 01:58:42 02:01:01 13° 258° (WSW) 02:03:20 145.827
DANDE 07 May 02:00:26 02:07:12 56° 75° (ENE) 02:15:13 436.750
RS-15 07 May 02:02:00 02:12:05 30° 358° (N) 02:22:29 29.354- 29.394
DUCHIFAT 1 07 May 02:05:26 02:08:00 16° 298° (WNW) 02:10:31 145.980
Gurwin Techsat 1B 07 May 02:12:40 02:16:37 21° 91° (E) 02:20:33 435.225
QB50P2 07 May 02:13:08 02:14:48 12° 301° (WNW) 02:16:28 145.880/145.840
POLYITAN 1 07 May 02:15:26 02:17:01 12° 301° (WNW) 02:18:36 437.675
POPSAT HIP 1 07 May 02:16:46 02:18:20 12° 301° (WNW) 02:19:54 437.405
CUSAT 1 07 May 02:18:37 02:26:05 69° 263° (W) 02:34:06 437.405
QB50P1 07 May 02:19:53 02:21:04 11° 301° (WNW) 02:22:14 145.935-145.965
AIST 2 07 May 02:23:47 02:24:17 10° 27° (NNE) 02:24:48 435.215
BUGSAT 1 07 May 02:27:41 02:30:28 18° 297° (WNW) 02:33:14 437.445
BEESAT 07 May 02:28:56 02:33:41 84° 256° (WSW) 02:38:29 436.000
Cosmos 2499 07 May 02:30:55 02:37:24 38° 289° (WNW) 02:44:02 435.465 / 435.565
AO-7 07 May 03:02:26 03:05:42 13° 85° (E) 03:08:56 29.400- 29.500
ITAMSAT 1 07 May 03:09:38 03:14:03 27° 95° (E) 03:18:27 435.822/435.867
BEESAT 3 07 May 03:11:36 03:15:02 28° 244° (WSW) 03:18:25 437.485
JAS-2 07 May 03:13:03 03:20:27 48° 294° (WNW) 03:27:48 435.910
KKS-1 07 May 03:18:38 03:22:53 43° 70° (ENE) 03:27:10 437.445
Oscar 19 07 May 03:19:52 03:24:50 46° 291° (WNW) 03:29:46 437.125/150
STARS 07 May 03:23:11 03:26:53 27° 66° (ENE) 03:30:37 437.465
BEESAT 2 07 May 03:27:53 03:31:27 32° 243° (WSW) 03:35:01 435.950
ITUPSAT 1 07 May 03:28:21 03:32:11 24° 266° (W) 03:36:04 437.325
SWISSCUBE 07 May 03:35:52 03:39:11 19° 268° (W) 03:42:31 437.505
DANDE 07 May 03:43:40 03:49:53 35° 270° (W) 03:57:02 436.750
GONETS M04 07 May 03:50:48 03:52:51 11° 313° (NW) 03:54:55
Gurwin Techsat 1B 07 May 03:51:43 03:56:56 57° 289° (WNW) 04:02:08 435.225
MOZHAYETS 4 07 May 03:55:33 04:00:04 65° 73° (ENE) 04:04:36
AIST 2 07 May 03:59:51 04:03:50 44° 48° (NE) 04:07:49 435.215
CUSAT 1 07 May 04:03:08 04:07:07 15° 281° (W) 04:11:14 437.405
YUBILEINY 07 May 04:10:44 04:17:03 21° 59° (ENE) 04:23:20 435.215
RS-15 07 May 04:17:23 04:28:49 43° 31° (NNE) 04:40:23 29.354- 29.394
CUBESAT XI-V 07 May 04:18:39 04:21:20 16° 60° (ENE) 04:24:02 437.345
HORYU 2 07 May 04:36:29 04:38:19 12° 89° (E) 04:40:09 437.375
ITAMSAT 1 07 May 04:48:47 04:53:39 42° 292° (WNW) 04:58:30 435.822/435.867
AO-7 07 May 04:51:46 05:00:04 65° 105° (ESE) 05:08:21 29.400- 29.500
KKS-1 07 May 04:56:17 04:59:39 21° 267° (W) 05:03:03 437.445
STARS 07 May 04:59:06 05:03:08 34° 263° (W) 05:07:12 437.465
JAS-2 07 May 05:00:50 05:03:39 12° 315° (NW) 05:06:31 435.910
Cosmos 2491 07 May 05:01:50 05:07:08 18° 75° (ENE) 05:12:26 435.465 / 435.565
ISS 07 May 05:26:50 05:28:59 17° 135° (SE) 05:31:08 145.825
MOZHAYETS 4 07 May 05:35:16 05:37:41 14° 271° (W) 05:40:06
AIST 2 07 May 05:38:53 05:42:04 22° 247° (WSW) 05:45:14 435.215
NOAA 15 07 May 05:41:02 05:42:59 12° 87° (E) 05:44:56 137.62
CUBESAT XI-V 07 May 05:53:35 05:58:10 69° 258° (WSW) 06:02:49 437.345
STRAND 1 07 May 05:53:56 05:56:58 16° 58° (ENE) 05:59:59 437.568
Cubesat XI-IV 07 May 06:00:15 06:02:13 12° 87° (E) 06:04:12 437.490
NOAA 18 07 May 06:06:18 06:10:00 18° 91° (E) 06:13:40 137.9125
YUBILEINY 07 May 06:06:27 06:15:13 88° 83° (E) 06:23:58 435.215
HORYU 2 07 May 06:10:58 06:15:23 71° 286° (WNW) 06:19:46 437.375
SO-50 07 May 06:15:37 06:20:18 46° 119° (ESE) 06:25:01 436.795
